GW6464 Weather Reports


time (UTC)temp
C
wind
direction
speed
KPH
gust
KPH
rain 1hr
cm
rain 24hr
cm
rain mn
cm
humidity
%
barometer
mb
20260906223508 27 22 0.0 1.6 0.00 0.00 0.00 29 1012.5
20260906223020 27 22 0.0 3.2 0.00 0.00 0.00 29 1012.5
20260906222513 27 22 0.0 4.8 0.00 0.00 0.00 26 1012.7
20260906222004 27 22 1.6 4.8 0.00 0.00 0.00 25 1012.8
20260906221531 28 25 0.0 3.2 0.00 0.00 0.00 25 1012.7
20260906221012 28 22 0.0 3.2 0.00 0.00 0.00 26 1012.8
20260906220506 28 352 0.0 8.0 0.00 0.00 0.00 25 1012.9
20260906220010 28 352 1.6 8.0 0.00 0.00 0.00 25 1012.8
20260906215509 27 49 0.0 4.8 0.00 0.00 0.00 26 1012.9
20260906215013 27 49 0.0 6.4 0.00 0.00 0.00 27 1013.0
20260906214507 27 30 1.6 6.4 0.00 0.00 0.00 25 1013.1
20260906214010 27 352 3.2 6.4 0.00 0.00 0.00 28 1013.0
20260906213515 27 36 1.6 9.7 0.00 0.00 0.00 25 1013.1
20260906213024 27 348 6.4 9.7 0.00 0.00 0.00 27 1013.2
20260906212508 27 19 0.0 3.2 0.00 0.00 0.00 27 1013.4
20260906212012 27 19 0.0 6.4 0.00 0.00 0.00 27 1013.5
20260906211523 27 16 1.6 6.4 0.00 0.00 0.00 26 1013.6
20260906211006 27 16 1.6 6.4 0.00 0.00 0.00 29 1013.6
20260906210508 27 132 0.0 6.4 0.00 0.00 0.00 27 1013.7
20260906210024 27 91 1.6 6.4 0.00 0.00 0.00 28 1013.9
20260906205515 26 15 0.0 6.4 0.00 0.00 0.00 29 1013.9
20260906205015 27 39 3.2 6.4 0.00 0.00 0.00 27 1014.0
20260906204518 26 340 0.0 8.0 0.00 0.00 0.00 30 1014.0
20260906204014 26 343 4.8 8.0 0.00 0.00 0.00 29 1014.1
20260906203508 26 11 3.2 8.0 0.00 0.00 0.00 29 1014.2
20260906203017 26 22 1.6 8.0 0.00 0.00 0.00 29 1014.1
20260906202513 26 5 1.6 8.0 0.00 0.00 0.00 29 1014.1
20260906202018 26 49 1.6 11.3 0.00 0.00 0.00 30 1014.2
20260906201510 26 115 3.2 11.3 0.00 0.00 0.00 31 1014.2
20260906201011 26 19 1.6 8.0 0.00 0.00 0.00 31 1014.2
20260906200514 26 158 3.2 9.7 0.00 0.00 0.00 32 1014.4
20260906200008 26 166 1.6 9.7 0.00 0.00 0.00 32 1014.5
20260906195509 26 22 0.0 4.8 0.00 0.00 0.00 35 1014.5
20260906195015 26 19 1.6 6.4 0.00 0.00 0.00 32 1014.6
20260906194526 26 9 3.2 9.7 0.00 0.00 0.00 32 1014.6
20260906194008 25 5 3.2 9.7 0.00 0.00 0.00 35 1014.7
20260906193513 25 347 3.2 9.7 0.00 0.00 0.00 35 1014.8
20260906193026 26 158 0.0 3.2 0.00 0.00 0.00 33 1014.9
20260906192515 25 158 0.0 8.0 0.00 0.00 0.00 34 1015.1
20260906192009 25 158 1.6 8.0 0.00 0.00 0.00 35 1015.2
20260906191523 25 32 3.2 8.0 0.00 0.00 0.00 35 1015.3
20260906191015 25 24 0.0 4.8 0.00 0.00 0.00 37 1015.4
20260906190507 24 29 0.0 6.4 0.00 0.00 0.00 37 1015.4
20260906190019 24 26 1.6 9.7 0.00 0.00 0.00 37 1015.5
20260906185512 24 360 3.2 9.7 0.00 0.00 0.00 38 1015.5
20260906185015 24 352 4.8 8.0 0.00 0.00 0.00 38 1015.5
20260906184516 24 352 1.6 6.4 0.00 0.00 0.00 39 1015.7
20260906184011 23 46 0.0 6.4 0.00 0.00 0.00 41 1015.8
20260906183515 24 105 1.6 4.8 0.00 0.00 0.00 41 1015.9
20260906183013 23 134 1.6 6.4 0.00 0.00 0.00 42 1016.0
20260906182510 23 5 1.6 6.4 0.00 0.00 0.00 43 1016.0
20260906182018 23 153 1.6 4.8 0.00 0.00 0.00 41 1016.0
20260906181539 23 40 3.2 8.0 0.00 0.00 0.00 43 1016.0
20260906181011 23 150 1.6 9.7 0.00 0.00 0.00 43 1016.1
20260906180517 23 341 4.8 9.7 0.00 0.00 0.00 43 1016.2
20260906180047 23 352 1.6 11.3 0.00 0.00 0.00 45 1016.2
20260906175508 23 150 4.8 11.3 0.00 0.00 0.00 45 1016.4
20260906175016 23 55 1.6 6.4 0.00 0.00 0.00 45 1016.4
20260906174534 22 72 1.6 6.4 0.00 0.00 0.00 44 1016.5
20260906174016 22 38 1.6 6.4 0.00 0.00 0.00 46 1016.5
20260906173509 22 29 0.0 6.4 0.00 0.00 0.00 45 1016.5
20260906173027 22 338 3.2 6.4 0.00 0.00 0.00 44 1016.5
20260906172516 22 34 1.6 6.4 0.00 0.00 0.00 46 1016.5
20260906172018 22 38 0.0 6.4 0.00 0.00 0.00 46 1016.6
20260906171520 21 345 1.6 6.4 0.00 0.00 0.00 46 1016.6
20260906171015 21 346 3.2 6.4 0.00 0.00 0.00 45 1016.6
20260906170515 22 42 1.6 8.0 0.00 0.00 0.00 45 1016.6
20260906170020 22 153 0.0 8.0 0.00 0.00 0.00 48 1016.7
20260906165517 21 69 0.0 4.8 0.00 0.00 0.00 46 1016.8
20260906165017 21 69 1.6 4.8 0.00 0.00 0.00 47 1016.9
20260906164532 21 30 1.6 4.8 0.00 0.00 0.00 46 1016.9
20260906164012 21 29 0.0 6.4 0.00 0.00 0.00 46 1016.9
20260906163513 21 28 3.2 8.0 0.00 0.00 0.00 46 1017.0
20260906163029 21 23 4.8 8.0 0.00 0.00 0.00 45 1017.1
20260906162513 21 22 1.6 6.4 0.00 0.00 0.00 47 1017.0
20260906162015 20 20 1.6 6.4 0.00 0.00 0.00 47 1017.1
20260906161528 21 10 1.6 6.4 0.00 0.00 0.00 48 1017.1
20260906161018 21 31 1.6 6.4 0.00 0.00 0.00 47 1017.2
20260906160511 21 346 3.2 6.4 0.00 0.00 0.00 46 1017.2
20260906160033 21 36 3.2 6.4 0.00 0.00 0.00 48 1017.3
20260906155516 20 22 0.0 6.4 0.00 0.00 0.00 46 1017.3
20260906155019 20 22 0.0 6.4 0.00 0.00 0.00 46 1017.3
20260906154523 20 11 0.0 4.8 0.00 0.00 0.00 46 1017.3
20260906154017 20 11 1.6 4.8 0.00 0.00 0.00 46 1017.3
20260906153519 20 346 0.0 6.4 0.00 0.00 0.00 46 1017.3
20260906153023 20 346 0.0 6.4 0.00 0.00 0.00 45 1017.3
20260906152515 20 333 1.6 8.0 0.00 0.00 0.00 44 1017.3
20260906152019 20 344 0.0 8.0 0.00 0.00 0.00 45 1017.3
20260906151531 19 346 1.6 8.0 0.00 0.00 0.00 45 1017.4
20260906151014 19 336 1.6 8.0 0.00 0.00 0.00 45 1017.5
20260906150519 19 352 1.6 6.4 0.00 0.00 0.00 46 1017.6
20260906150034 18 320 1.6 12.9 0.00 0.00 0.00 46 1017.5
20260906145511 19 302 1.6 12.9 0.00 0.00 0.00 45 1017.6
20260906145017 18 352 3.2 8.0 0.00 0.00 0.00 45 1017.7
20260906144529 18 326 1.6 8.0 0.00 0.00 0.00 44 1017.6
20260906144019 18 324 3.2 9.7 0.00 0.00 0.00 44 1017.7
20260906143514 18 347 3.2 12.9 0.00 0.00 0.00 45 1017.8
20260906143027 18 352 3.2 12.9 0.00 0.00 0.00 45 1017.8
20260906142519 18 38 3.2 6.4 0.00 0.00 0.00 46 1017.7
20260906142012 17 360 3.2 6.4 0.00 0.00 0.00 47 1017.8
20260906141526 17 32 3.2 4.8 0.00 0.00 0.00 49 1017.8
20260906141017 16 39 0.0 3.2 0.00 0.00 0.00 51 1017.7
20260906140517 16 39 0.0 4.8 0.00 0.00 0.00 50 1017.7
20260906140037 16 43 0.0 4.8 0.00 0.00 0.00 50 1017.7
20260906135516 16 336 0.0 0.0 0.00 0.00 0.00 51 1017.6
20260906135015 15 321 0.0 3.2 0.00 0.00 0.00 52 1017.6
20260906134533 15 321 0.0 3.2 0.00 0.00 0.00 53 1017.6
20260906134016 14 321 0.0 3.2 0.00 0.00 0.00 55 1017.5
20260906133519 13 321 0.0 3.2 0.00 0.00 0.00 55 1017.5
20260906133038 13 321 0.0 3.2 0.00 0.00 0.00 55 1017.5
20260906132514 13 321 1.6 3.2 0.00 0.00 0.00 54 1017.5
20260906132013 13 321 1.6 4.8 0.00 0.00 0.00 54 1017.5
20260906131531 13 321 0.0 4.8 0.00 0.00 0.00 54 1017.5
20260906131018 13 322 1.6 3.2 0.00 0.00 0.00 53 1017.6
20260906130515 13 327 0.0 0.0 0.00 0.00 0.00 53 1017.7
20260906130029 13 327 0.0 0.0 0.00 0.00 0.00 52 1017.7
20260906125515 13 327 0.0 0.0 0.00 0.00 0.00 52 1017.6
20260906125015 13 327 0.0 0.0 0.00 0.00 0.00 52 1017.6
20260906124529 13 327 0.0 0.0 0.00 0.00 0.00 52 1017.6
20260906124021 13 327 0.0 0.0 0.00 0.00 0.00 52 1017.5
20260906123521 13 327 0.0 0.0 0.00 0.00 0.00 51 1017.5
20260906123027 13 327 0.0 0.0 0.00 0.00 0.00 51 1017.5
20260906122514 13 327 0.0 0.0 0.00 0.00 0.00 51 1017.6
20260906122020 13 327 0.0 0.0 0.00 0.00 0.00 49 1017.5
20260906121536 13 327 0.0 0.0 0.00 0.00 0.00 49 1017.4
20260906121014 13 327 0.0 0.0 0.00 0.00 0.00 49 1017.3
20260906120521 13 327 0.0 0.0 0.00 0.00 0.00 50 1017.3
20260906120020 13 327 0.0 0.0 0.00 0.00 0.00 49 1017.1
20260906115503 14 327 0.0 0.0 0.00 0.00 0.00 49 1017.1
20260906115007 14 327 0.0 0.0 0.00 0.00 0.00 48 1017.1
20260906114528 14 327 0.0 0.0 0.00 0.00 0.00 48 1017.0
20260906114004 15 327 0.0 0.0 0.00 0.00 0.00 47 1016.9
20260906113504 15 327 0.0 0.0 0.00 0.00 0.00 47 1016.8
20260906113017 15 327 0.0 0.0 0.00 0.00 0.00 47 1016.9
20260906112510 15 327 0.0 0.0 0.00 0.00 0.00 46 1016.8
20260906112003 15 327 0.0 0.0 0.00 0.00 0.00 46 1016.8
20260906111508 15 327 0.0 0.0 0.00 0.00 0.00 46 1016.8
20260906111007 15 327 0.0 0.0 0.00 0.00 0.00 45 1016.8
20260906110505 15 327 0.0 0.0 0.00 0.00 0.00 45 1016.8
20260906110004 15 327 0.0 0.0 0.00 0.00 0.00 45 1016.7
20260906105508 15 327 0.0 0.0 0.00 0.00 0.00 45 1016.6
20260906105012 15 327 0.0 0.0 0.00 0.00 0.00 45 1016.6
20260906104504 15 327 0.0 0.0 0.00 0.00 0.00 45 1016.7
20260906104006 15 327 0.0 0.0 0.00 0.00 0.00 45 1016.7
20260906103508 15 327 0.0 0.0 0.00 0.00 0.00 45 1016.6
20260906103023 15 327 0.0 0.0 0.00 0.00 0.00 45 1016.6
20260906102504 15 327 0.0 0.0 0.00 0.00 0.00 45 1016.7
20260906102006 16 327 0.0 0.0 0.00 0.00 0.00 45 1016.7
20260906101522 16 327 0.0 0.0 0.00 0.00 0.00 44 1016.6
20260906101002 16 327 0.0 0.0 0.00 0.00 0.00 45 1016.6
20260906100508 16 327 0.0 0.0 0.00 0.00 0.00 44 1016.5
20260906100021 16 327 0.0 0.0 0.00 0.00 0.00 44 1016.5
20260906095511 16 327 0.0 0.0 0.00 0.00 0.00 44 1016.5
20260906095003 16 327 0.0 0.0 0.00 0.00 0.00 44 1016.5
20260906094511 16 327 0.0 0.0 0.00 0.00 0.00 44 1016.5
20260906094013 16 327 0.0 0.0 0.00 0.00 0.00 44 1016.5
20260906093504 16 327 0.0 0.0 0.00 0.00 0.00 44 1016.6
20260906093008 16 327 0.0 0.0 0.00 0.00 0.00 44 1016.6
20260906092508 16 327 0.0 0.0 0.00 0.00 0.00 44 1016.5
20260906092015 16 327 0.0 0.0 0.00 0.00 0.00 43 1016.6
20260906091504 16 327 0.0 0.0 0.00 0.00 0.00 43 1016.6
20260906091007 16 327 0.0 0.0 0.00 0.00 0.00 43 1016.6
20260906090513 16 327 0.0 0.0 0.00 0.00 0.00 42 1016.6
20260906090004 16 327 0.0 0.0 0.00 0.00 0.00 42 1016.7
20260906085507 16 327 0.0 0.0 0.00 0.00 0.00 42 1016.7
20260906085011 16 327 0.0 0.0 0.00 0.00 0.00 42 1016.8
20260906084525 16 327 0.0 0.0 0.00 0.00 0.00 42 1016.8
20260906084002 16 327 0.0 0.0 0.00 0.00 0.00 42 1016.9
20260906083513 16 327 0.0 0.0 0.00 0.00 0.00 41 1016.9
20260906083033 16 327 0.0 0.0 0.00 0.00 0.00 41 1016.9
20260906082514 16 327 0.0 0.0 0.00 0.00 0.00 40 1017.0
20260906082004 17 327 0.0 0.0 0.00 0.00 0.00 40 1017.1
20260906081517 17 327 0.0 0.0 0.00 0.00 0.00 40 1017.1
20260906081011 17 327 0.0 0.0 0.00 0.00 0.00 39 1017.1
20260906080504 17 327 0.0 0.0 0.00 0.00 0.00 39 1017.1
20260906080014 17 327 0.0 0.0 0.00 0.00 0.00 40 1017.2
20260906075511 17 327 0.0 0.0 0.00 0.00 0.00 40 1017.2
20260906075016 17 327 0.0 0.0 0.00 0.00 0.00 39 1017.2
20260906074507 17 327 0.0 0.0 0.00 0.00 0.00 40 1017.2
20260906074011 17 327 0.0 0.0 0.00 0.00 0.00 38 1017.2
20260906073517 17 327 0.0 0.0 0.00 0.00 0.00 39 1017.3
20260906073003 17 327 0.0 3.2 0.00 0.00 0.00 40 1017.4
20260906072508 17 327 0.0 3.2 0.00 0.00 0.00 40 1017.4
20260906072011 16 327 0.0 4.8 0.00 0.00 0.00 41 1017.4
20260906071526 16 327 0.0 4.8 0.00 0.00 0.00 41 1017.4
20260906071010 16 327 0.0 4.8 0.00 0.00 0.00 41 1017.5
20260906070510 16 327 1.6 4.8 0.00 0.00 0.00 41 1017.5
20260906070023 17 20 0.0 0.0 0.00 0.00 0.00 41 1017.6
20260906065519 17 23 0.0 0.0 0.00 0.00 0.00 41 1017.6
20260906065010 17 23 0.0 0.0 0.00 0.00 0.00 40 1017.6
20260906064519 17 23 0.0 0.0 0.00 0.00 0.00 40 1017.6
20260906064019 17 23 0.0 0.0 0.00 0.00 0.00 39 1017.7
20260906063507 17 24 0.0 0.0 0.00 0.00 0.00 39 1017.7
20260906063015 18 24 0.0 1.6 0.00 0.00 0.00 39 1017.8
20260906062512 18 24 0.0 1.6 0.00 0.00 0.00 38 1017.9
20260906062020 18 17 0.0 0.0 0.00 0.00 0.00 39 1017.9
20260906061513 18 17 0.0 0.0 0.00 0.00 0.00 38 1017.9
20260906061011 18 17 0.0 0.0 0.00 0.00 0.00 38 1017.9
20260906060514 18 17 0.0 1.6 0.00 0.00 0.00 37 1017.8
20260906060016 18 17 0.0 1.6 0.00 0.00 0.00 36 1017.8
20260906055509 18 17 0.0 3.2 0.00 0.00 0.00 36 1017.8
20260906055013 18 17 0.0 3.2 0.00 0.00 0.00 36 1017.7
20260906054541 18 17 0.0 3.2 0.00 0.00 0.00 36 1017.8
20260906054006 18 17 0.0 3.2 0.00 0.00 0.00 35 1017.9
20260906053510 18 17 1.6 3.2 0.00 0.00 0.00 36 1018.0
20260906053027 18 17 0.0 3.2 0.00 0.00 0.00 37 1018.0
20260906052506 18 17 1.6 3.2 0.00 0.00 0.00 37 1018.1
20260906052012 18 22 0.0 0.0 0.00 0.00 0.00 37 1018.1
20260906051522 18 22 0.0 0.0 0.00 0.00 0.00 38 1018.1
20260906051014 18 22 0.0 0.0 0.00 0.00 0.00 37 1018.1
20260906050509 18 22 0.0 0.0 0.00 0.00 0.00 37 1018.0
20260906050019 18 22 0.0 0.0 0.00 0.00 0.00 37 1018.0
20260906045514 18 22 0.0 0.0 0.00 0.00 0.00 36 1018.0
20260906045018 18 22 0.0 0.0 0.00 0.00 0.00 36 1018.1
20260906044515 18 22 0.0 0.0 0.00 0.00 0.00 36 1018.2
20260906044016 18 22 0.0 0.0 0.00 0.00 0.00 36 1018.2
20260906043514 19 22 0.0 0.0 0.00 0.00 0.00 36 1018.1
20260906043017 19 23 0.0 0.0 0.00 0.00 0.00 35 1018.3
20260906042511 19 23 0.0 0.0 0.00 0.00 0.00 35 1018.3
20260906042014 20 23 0.0 0.0 0.00 0.00 0.00 35 1018.2
20260906041531 20 23 0.0 0.0 0.00 0.00 0.00 35 1018.2
20260906041009 20 23 0.0 0.0 0.00 0.00 0.00 34 1018.1
20260906040511 20 23 0.0 0.0 0.00 0.00 0.00 33 1018.1
20260906040058 20 23 0.0 0.0 0.00 0.00 0.00 33 1018.1
20260906035507 20 23 0.0 0.0 0.00 0.00 0.00 33 1018.1
20260906035013 20 23 0.0 0.0 0.00 0.00 0.00 34 1018.1
20260906034527 20 23 0.0 0.0 0.00 0.00 0.00 34 1018.1
20260906034014 20 23 0.0 0.0 0.00 0.00 0.00 34 1018.0
20260906033510 20 23 0.0 0.0 0.00 0.00 0.00 34 1018.0
20260906033038 20 23 0.0 0.0 0.00 0.00 0.00 33 1018.0
20260906032514 20 23 0.0 0.0 0.00 0.00 0.00 32 1018.0
20260906032019 20 23 0.0 4.8 0.00 0.00 0.00 32 1017.9
20260906031518 20 23 0.0 4.8 0.00 0.00 0.00 32 1017.8
20260906031014 20 22 0.0 3.2 0.00 0.00 0.00 32 1017.9
20260906030519 21 35 0.0 0.0 0.00 0.00 0.00 32 1018.0
20260906030014 21 35 0.0 3.2 0.00 0.00 0.00 31 1017.9
20260906025513 21 35 0.0 3.2 0.00 0.00 0.00 32 1017.8
20260906025018 21 35 0.0 0.0 0.00 0.00 0.00 30 1017.7
20260906024532 21 35 0.0 0.0 0.00 0.00 0.00 30 1017.5
20260906024014 21 35 0.0 0.0 0.00 0.00 0.00 29 1017.4
20260906023516 21 35 0.0 0.0 0.00 0.00 0.00 29 1017.4
20260906023031 22 35 0.0 0.0 0.00 0.00 0.00 29 1017.4
20260906022510 22 35 0.0 0.0 0.00 0.00 0.00 28 1017.3
20260906022014 22 35 0.0 0.0 0.00 0.00 0.00 28 1017.4
20260906021530 22 35 0.0 0.0 0.00 0.00 0.00 28 1017.4
20260906021018 22 35 0.0 0.0 0.00 0.00 0.00 28 1017.3
20260906020512 22 35 0.0 0.0 0.00 0.00 0.00 28 1017.3
20260906020028 22 35 0.0 0.0 0.00 0.00 0.00 27 1017.2
20260906015516 23 35 0.0 0.0 0.00 0.00 0.00 27 1017.3
20260906015011 23 35 0.0 0.0 0.00 0.00 0.00 27 1017.2
20260906014526 23 35 0.0 0.0 0.00 0.00 0.00 27 1017.3
20260906014016 23 35 0.0 0.0 0.00 0.00 0.00 27 1017.2
20260906013519 23 35 0.0 0.0 0.00 0.00 0.00 27 1017.3
20260906013018 23 35 0.0 0.0 0.00 0.00 0.00 27 1017.2
20260906012517 23 35 0.0 0.0 0.00 0.00 0.00 27 1017.2
20260906012019 23 35 0.0 0.0 0.00 0.00 0.00 27 1017.3
20260906011534 23 35 0.0 0.0 0.00 0.00 0.00 28 1017.2
20260906011011 23 35 0.0 0.0 0.00 0.00 0.00 28 1017.2
20260906010517 23 35 0.0 0.0 0.00 0.00 0.00 29 1017.2
20260906010031 23 35 0.0 0.0 0.00 0.00 0.00 28 1017.1
20260906005512 23 35 0.0 0.0 0.00 0.00 0.00 28 1017.1
20260906005016 24 35 0.0 0.0 0.00 0.00 0.00 27 1017.1
20260906004531 24 35 0.0 0.0 0.00 0.00 0.00 28 1017.1
20260906004024 24 35 0.0 0.0 0.00 0.00 0.00 27 1017.1
20260906003514 24 35 0.0 0.0 0.00 0.00 0.00 27 1017.1
20260906003027 25 35 0.0 0.0 0.00 0.00 0.00 25 1017.2
20260906002518 25 35 0.0 0.0 0.00 0.00 0.00 23 1017.1
20260906002012 25 35 0.0 0.0 0.00 0.00 0.00 23 1017.2
20260906001526 25 35 0.0 0.0 0.00 0.00 0.00 23 1017.2
20260906001007 25 35 0.0 0.0 0.00 0.00 0.00 23 1017.2
20260906000502 25 35 0.0 0.0 0.00 0.00 0.00 24 1017.2
20260906000004 25 35 0.0 0.0 0.00 0.00 0.00 25 1017.2
20260905235503 26 35 0.0 0.0 0.00 0.00 0.00 22 1017.2
20260905235006 25 35 0.0 0.0 0.00 0.00 0.00 24 1017.4
20260905234502 25 35 0.0 0.0 0.00 0.00 0.00 23 1017.3
20260905234003 25 35 0.0 0.0 0.00 0.00 0.00 22 1017.2
20260905233519 25 35 0.0 1.6 0.00 0.00 0.00 21 1017.2
20260905233015 26 35 0.0 1.6 0.00 0.00 0.00 20 1017.2
20260905232503 25 35 0.0 3.2 0.00 0.00 0.00 22 1017.2
20260905232003 26 35 0.0 6.4 0.00 0.00 0.00 20 1017.2
20260905231519 26 35 1.6 6.4 0.00 0.00 0.00 20 1017.2
20260905231001 26 32 1.6 6.4 0.00 0.00 0.00 23 1017.2
20260905230514 26 34 0.0 6.4 0.00 0.00 0.00 22 1017.2
20260905230008 26 53 1.6 4.8 0.00 0.00 0.00 23 1017.2
20260905225510 26 106 0.0 3.2 0.00 0.00 0.00 23 1017.3
20260905225006 26 106 0.0 6.4 0.00 0.00 0.00 21 1017.2
20260905224507 26 9 1.6 6.4 0.00 0.00 0.00 19 1017.3
20260905224010 26 360 0.0 6.4 0.00 0.00 0.00 20 1017.4